Change the Weather History Date:

Saturday, December 28, 2013

  Actual Average Record
Temperature  
Mean Temperature 42 °F -  
Max Temperature 48 °F 34 °F 62 °F (1982)
Min Temperature 36 °F 17 °F -10 °F (1950)
Degree Days  
Heating Degree Days 23    
Moisture  
Dew Point 31 °F    
Average Humidity 68    
Maximum Humidity 76    
Minimum Humidity 58    
Precipitation  
Precipitation 0.00 in - - ()
Sea Level Pressure  
Sea Level Pressure 30.09 in    
Wind  
Wind Speed 11 mph (SSW)    
Max Wind Speed 16 mph    
Max Gust Speed 23 mph    
Visibility 10 miles    
Events      
Averages and records for this station are not official NWS values.
T = Trace of Precipitation, MM = Missing Value Source: NWS Daily Summary

Daily Weather History Graph

Daily Weather History Graph

Search for Another Location

Airport or City:

Trip Planner

Search our weather history database for the weather conditions in past years. The results will help you decide how hot, cold, wet, or windy it might be!

Date:

Astronomy

Dec. 28, 2013 Rise Set
Actual Time 8:03 AM EST 5:16 PM EST
Civil Twilight 7:31 AM EST 5:47 PM EST
Nautical Twilight 6:56 AM EST 6:22 PM EST
Astronomical Twilight 6:23 AM EST 6:55 PM EST
Moon 3:37 AM EST (12/28) 2:07 PM EST (12/28)
Length of Visible Light 10h 15m
Length of Day
9h 13m
Waning Crescent, 19% of the Moon is Illuminated
Dec 28
Waning Crescent
Jan 1
New
Jan 7
First Quarter
Jan 15
Full
Jan 24
Last Quarter

Hourly Weather History & Observations

Time (EST) Temp. Windchill Dew Point Humidity Pressure Visibility Wind Dir Wind Speed Gust Speed Precip Events Conditions
12:53 AM 37.0 °F 29.3 °F 30.0 °F 76% 30.16 in 10.0 mi SW 11.5 mph - N/A   Clear
1:53 AM 37.9 °F 29.6 °F 30.0 °F 73% 30.14 in 10.0 mi SW 13.8 mph 23.0 mph N/A   Clear
2:53 AM 37.9 °F 30.5 °F 30.0 °F 73% 30.13 in 10.0 mi SW 11.5 mph 19.6 mph N/A   Clear
3:53 AM 37.0 °F 28.9 °F 28.9 °F 73% 30.12 in 10.0 mi SW 12.7 mph - N/A   Clear
4:53 AM 37.0 °F 29.3 °F 28.9 °F 73% 30.12 in 10.0 mi SSW 11.5 mph - N/A   Clear
5:53 AM 36.0 °F 28.5 °F 28.9 °F 76% 30.14 in 10.0 mi SW 10.4 mph - N/A   Clear
6:53 AM 37.0 °F 29.3 °F 28.9 °F 73% 30.16 in 10.0 mi SW 11.5 mph - N/A   Clear
7:53 AM 36.0 °F 29.6 °F 28.9 °F 76% 30.17 in 10.0 mi SW 8.1 mph - N/A   Clear
8:53 AM 37.0 °F 31.0 °F 28.9 °F 73% 30.17 in 10.0 mi SW 8.1 mph - N/A   Clear
9:53 AM 39.0 °F 32.3 °F 30.0 °F 70% 30.17 in 10.0 mi SW 10.4 mph - N/A   Clear
10:53 AM 42.1 °F 35.2 °F 30.9 °F 65% 30.16 in 10.0 mi SW 12.7 mph - N/A   Clear
11:53 AM 45.0 °F 38.5 °F 33.1 °F 63% 30.13 in 10.0 mi SW 13.8 mph - N/A   Clear
12:53 PM 46.9 °F - 33.1 °F 59% 30.10 in 10.0 mi SW 16.1 mph 23.0 mph N/A   Clear
1:53 PM 48.0 °F - 34.0 °F 58% 30.06 in 10.0 mi SSW 11.5 mph 19.6 mph N/A   Clear
2:53 PM 48.9 °F - 35.1 °F 59% 30.07 in 10.0 mi SSW 11.5 mph - N/A   Clear
3:53 PM 48.0 °F - 35.1 °F 61% 30.06 in 10.0 mi SSW 10.4 mph - N/A   Clear
4:53 PM 46.0 °F 41.4 °F 33.1 °F 61% 30.05 in 10.0 mi SSW 9.2 mph - N/A   Clear
5:53 PM 43.0 °F 37.7 °F 32.0 °F 65% 30.05 in 10.0 mi SSW 9.2 mph - N/A   Clear
6:53 PM 42.1 °F 36.1 °F 30.9 °F 65% 30.05 in 10.0 mi SSW 10.4 mph - N/A   Clear
7:53 PM 41.0 °F 35.2 °F 30.9 °F 67% 30.04 in 10.0 mi SSW 9.2 mph - N/A   Clear
8:53 PM 39.9 °F 32.5 °F 30.0 °F 68% 30.02 in 10.0 mi SSW 12.7 mph - N/A   Clear
9:53 PM 39.9 °F 32.9 °F 30.0 °F 68% 29.99 in 10.0 mi SSW 11.5 mph - N/A   Clear
10:53 PM 39.9 °F 34.5 °F 28.9 °F 65% 29.96 in 10.0 mi SSW 8.1 mph - N/A   Clear
11:53 PM 39.0 °F 33.4 °F 30.0 °F 70% 29.95 in 10.0 mi SSW 8.1 mph - N/A   Clear